Weather History for KRRT - October, 2011

Change the Weather History Date:

Sunday, October 23, 2011

  Actual Average Record
Temperature  
Mean Temperature 45 °F -  
Max Temperature 55 °F 51 °F 81 °F (1963)
Min Temperature 35 °F 30 °F 8 °F (1976)
Degree Days  
Heating Degree Days 20    
Moisture  
Dew Point 35 °F    
Average Humidity 71    
Maximum Humidity 93    
Minimum Humidity 38    
Precipitation  
Precipitation 0.00 in - - ()
Sea Level Pressure  
Sea Level Pressure 29.76 in    
Wind  
Wind Speed 7 mph (West)    
Max Wind Speed 22 mph    
Max Gust Speed 26 mph    
Visibility 10 miles    
Events      
Averages and records for this station are not official NWS values.
T = Trace of Precipitation, MM = Missing Value Source: NWS Daily Summary

Daily Weather History Graph

Daily Weather History Graph

Search for Another Location

Airport or City:

Trip Planner

Search our weather history database for the weather conditions in past years. The results will help you decide how hot, cold, wet, or windy it might be!

Date:

Astronomy

Oct. 23, 2011 Rise Set
Actual Time 7:53 AM CDT 6:16 PM CDT
Civil Twilight 7:21 AM CDT 6:49 PM CDT
Nautical Twilight 6:44 AM CDT 7:25 PM CDT
Astronomical Twilight 6:08 AM CDT 8:02 PM CDT
Moon 3:44 AM CDT (10/23) 4:21 PM CDT (10/23)
Length of Visible Light 11h 27m
Length of Day
10h 22m
Waning Crescent, 14% of the Moon is Illuminated
Oct 23
Waning Crescent
Oct 26
New
Nov 2
First Quarter
Nov 10
Full
Nov 18
Last Quarter

Hourly Weather History & Observations

Time (CDT) Temp. Windchill Dew Point Humidity Pressure Visibility Wind Dir Wind Speed Gust Speed Precip Events Conditions
12:14 AM 48.2 °F - 41.0 °F 76% 29.72 in 10.0 mi WSW 8.1 mph - N/A   Clear
12:33 AM 48.2 °F - 41.0 °F 76% 29.71 in 10.0 mi WSW 5.8 mph - N/A   Clear
12:54 AM 46.4 °F 42.9 °F 41.0 °F 81% 29.72 in 10.0 mi WSW 6.9 mph - N/A   Clear
1:34 AM 46.4 °F 44.3 °F 41.0 °F 81% 29.72 in 10.0 mi WSW 4.6 mph - N/A   Clear
1:54 AM 44.6 °F 42.2 °F 39.2 °F 81% 29.72 in 10.0 mi WSW 4.6 mph - N/A   Mostly Cloudy
2:14 AM 42.8 °F - 37.4 °F 81% 29.72 in 10.0 mi Calm Calm - N/A   Scattered Clouds
2:34 AM 39.2 °F 35.0 °F 35.6 °F 87% 29.72 in 10.0 mi SSW 5.8 mph - N/A   Clear
2:53 AM 39.2 °F 37.0 °F 35.6 °F 87% 29.72 in 10.0 mi South 3.5 mph - N/A   Clear
3:14 AM 39.2 °F 37.0 °F 35.6 °F 87% 29.73 in 10.0 mi SW 3.5 mph - N/A   Clear
3:34 AM 39.2 °F 37.0 °F 35.6 °F 87% 29.73 in 10.0 mi SW 3.5 mph - N/A   Scattered Clouds
3:54 AM 37.4 °F - 33.8 °F 87% 29.73 in 10.0 mi Calm Calm - N/A   Scattered Clouds
4:14 AM 39.2 °F 37.0 °F 35.6 °F 87% 29.73 in 10.0 mi WSW 3.5 mph - N/A   Scattered Clouds
4:33 AM 37.4 °F 33.8 °F 35.6 °F 93% 29.73 in 10.0 mi SW 4.6 mph - N/A   Scattered Clouds
4:54 AM 37.4 °F 34.9 °F 33.8 °F 87% 29.73 in 10.0 mi SW 3.5 mph - N/A   Clear
5:13 AM 35.6 °F - 32.0 °F 87% 29.73 in 10.0 mi Calm Calm - N/A   Clear
5:34 AM 39.2 °F 37.0 °F 35.6 °F 87% 29.74 in 10.0 mi West 3.5 mph - N/A   Scattered Clouds
5:54 AM 37.4 °F - 33.8 °F 87% 29.74 in 10.0 mi Calm Calm - N/A   Scattered Clouds
6:13 AM 39.2 °F 35.9 °F 35.6 °F 87% 29.74 in 10.0 mi West 4.6 mph - N/A   Scattered Clouds
6:34 AM 39.2 °F 35.0 °F 35.6 °F 87% 29.74 in 10.0 mi West 5.8 mph - N/A   Scattered Clouds
6:53 AM 39.2 °F 37.0 °F 35.6 °F 87% 29.73 in 10.0 mi WSW 3.5 mph - N/A   Scattered Clouds
7:14 AM 37.4 °F 32.8 °F 33.8 °F 87% 29.74 in 7.0 mi WSW 5.8 mph - N/A   Scattered Clouds
7:34 AM 39.2 °F 35.9 °F 35.6 °F 87% 29.74 in 10.0 mi WSW 4.6 mph - N/A   Scattered Clouds
7:53 AM 37.4 °F 32.1 °F 33.8 °F 87% 29.74 in 10.0 mi WSW 6.9 mph - N/A   Clear
8:14 AM 39.2 °F 35.9 °F 35.6 °F 87% 29.74 in 7.0 mi WSW 4.6 mph - N/A   Clear
8:33 AM 39.2 °F 37.0 °F 35.6 °F 87% 29.74 in 10.0 mi WSW 3.5 mph - N/A   Clear
8:54 AM 39.2 °F 37.0 °F 35.6 °F 87% 29.74 in 10.0 mi SSW 3.5 mph - N/A   Scattered Clouds
9:14 AM 39.2 °F 33.6 °F 35.6 °F 87% 29.75 in 10.0 mi WSW 8.1 mph - N/A   Scattered Clouds
9:54 AM 42.8 °F 37.5 °F 37.4 °F 81% 29.75 in 10.0 mi WSW 9.2 mph - N/A   Clear
10:13 AM 42.8 °F 37.5 °F 37.4 °F 81% 29.75 in 10.0 mi WSW 9.2 mph - N/A   Clear
10:34 AM 44.6 °F 40.2 °F 37.4 °F 76% 29.75 in 10.0 mi West 8.1 mph - N/A   Clear
10:53 AM 46.4 °F 41.1 °F 37.4 °F 71% 29.75 in 10.0 mi West 11.5 mph 18.4 mph N/A   Clear
11:34 AM 48.2 °F - 37.4 °F 66% 29.76 in 10.0 mi West 9.2 mph 21.9 mph N/A   Clear
11:54 AM 48.2 °F - 37.4 °F 66% 29.76 in 10.0 mi West 13.8 mph 18.4 mph N/A   Clear
12:14 PM 50.0 °F - 37.4 °F 62% 29.76 in 10.0 mi West 11.5 mph 16.1 mph N/A   Clear
12:34 PM 51.8 °F - 37.4 °F 58% 29.75 in 10.0 mi West 9.2 mph 18.4 mph N/A   Clear
12:53 PM 53.6 °F - 35.6 °F 51% 29.75 in 10.0 mi West 12.7 mph - N/A   Clear
1:14 PM 53.6 °F - 35.6 °F 51% 29.75 in 10.0 mi West 12.7 mph 19.6 mph N/A   Clear
1:33 PM 55.4 °F - 35.6 °F 47% 29.75 in 10.0 mi West 15.0 mph - N/A   Clear
1:54 PM 55.4 °F - 35.6 °F 47% 29.75 in 10.0 mi West 13.8 mph 18.4 mph N/A   Clear
2:13 PM 55.4 °F - 33.8 °F 44% 29.75 in 10.0 mi West 13.8 mph 20.7 mph N/A   Clear
2:34 PM 55.4 °F - 33.8 °F 44% 29.75 in 10.0 mi West 16.1 mph 19.6 mph N/A   Clear
2:53 PM 55.4 °F - 32.0 °F 41% 29.75 in 10.0 mi West 15.0 mph 20.7 mph N/A   Clear
3:14 PM 55.4 °F - 32.0 °F 41% 29.75 in 10.0 mi West 15.0 mph 24.2 mph N/A   Clear
3:33 PM 55.4 °F - 32.0 °F 41% 29.75 in 10.0 mi West 18.4 mph 21.9 mph N/A   Clear
3:54 PM 55.4 °F - 30.2 °F 38% 29.75 in 10.0 mi WNW 12.7 mph 24.2 mph N/A   Clear
4:14 PM 55.4 °F - 30.2 °F 38% 29.75 in 10.0 mi West 15.0 mph 20.7 mph N/A   Clear
4:34 PM 55.4 °F - 30.2 °F 38% 29.76 in 10.0 mi WNW 15.0 mph 23.0 mph N/A   Clear
4:53 PM 53.6 °F - 30.2 °F 41% 29.77 in 10.0 mi WNW 21.9 mph 26.5 mph N/A   Scattered Clouds
5:14 PM 53.6 °F - 32.0 °F 44% 29.77 in 10.0 mi WNW 16.1 mph 21.9 mph N/A   Scattered Clouds
5:33 PM 51.8 °F - 32.0 °F 47% 29.78 in 10.0 mi WNW 15.0 mph 20.7 mph N/A   Clear
5:54 PM 51.8 °F - 32.0 °F 47% 29.79 in 10.0 mi WNW 15.0 mph 24.2 mph N/A   Clear
6:13 PM 50.0 °F - 33.8 °F 54% 29.80 in 10.0 mi NW 8.1 mph - N/A   Scattered Clouds
6:53 PM 46.4 °F 42.9 °F 35.6 °F 66% 29.82 in 10.0 mi NW 6.9 mph - N/A   Clear
7:14 PM 44.6 °F 41.4 °F 35.6 °F 71% 29.82 in 10.0 mi NW 5.8 mph - N/A   Scattered Clouds
7:33 PM 44.6 °F 40.7 °F 35.6 °F 71% 29.83 in 10.0 mi NW 6.9 mph - N/A   Scattered Clouds
7:54 PM 44.6 °F 41.4 °F 35.6 °F 71% 29.84 in 10.0 mi NW 5.8 mph - N/A   Mostly Cloudy
8:13 PM 44.6 °F 42.2 °F 35.6 °F 71% 29.85 in 10.0 mi NNW 4.6 mph - N/A   Overcast
8:34 PM 44.6 °F 41.4 °F 37.4 °F 76% 29.85 in 10.0 mi NNW 5.8 mph - N/A   Overcast
8:53 PM 42.8 °F 37.5 °F 37.4 °F 81% 29.86 in 10.0 mi NNW 9.2 mph - N/A   Overcast
9:14 PM 42.8 °F 37.0 °F 35.6 °F 76% 29.87 in 10.0 mi NW 10.4 mph - N/A   Mostly Cloudy
9:33 PM 41.0 °F 35.2 °F 33.8 °F 76% 29.87 in 10.0 mi North 9.2 mph - N/A   Scattered Clouds
9:54 PM 39.2 °F 35.0 °F 33.8 °F 81% 29.88 in 10.0 mi NW 5.8 mph - N/A   Scattered Clouds
10:14 PM 37.4 °F 33.8 °F 33.8 °F 87% 29.88 in 10.0 mi NNW 4.6 mph - N/A   Scattered Clouds
10:34 PM 37.4 °F 32.8 °F 32.0 °F 81% 29.88 in 10.0 mi NW 5.8 mph - N/A   Clear
10:53 PM 35.6 °F 30.7 °F 32.0 °F 87% 29.89 in 10.0 mi WNW 5.8 mph - N/A   Clear
11:14 PM 37.4 °F 34.9 °F 32.0 °F 81% 29.89 in 10.0 mi NW 3.5 mph - N/A   Mostly Cloudy
11:34 PM 37.4 °F 33.8 °F 33.8 °F 87% 29.90 in 10.0 mi NW 4.6 mph - N/A   Overcast
11:53 PM 37.4 °F 33.8 °F 33.8 °F 87% 29.90 in 10.0 mi NNW 4.6 mph - N/A   Overcast